Waarnemingen

Advertentie
Mijn weer
Angermünde, Duitsland (10291): temperatuur & dauwpunt: 22.05.2018 12:00:00 - 28.05.2018 12:00:00 (CEST)Angermünde, Duitsland (10291): temperatuur 5cm & temperatuur -5cm: 22.05.2018 12:00:00 - 28.05.2018 12:00:00 (CEST)Angermünde, Duitsland (10291): temperatuur -20cm & temperatuur -100cm: 22.05.2018 12:00:00 - 28.05.2018 12:00:00 (CEST)Angermünde, Duitsland (10291): windsnelheid & windstoten: 22.05.2018 12:00:00 - 28.05.2018 12:00:00 (CEST)Angermünde, Duitsland (10291): windrichting: 22.05.2018 12:00:00 - 28.05.2018 12:00:00 (CEST)Angermünde, Duitsland (10291): luchtdruk: 22.05.2018 12:00:00 - 28.05.2018 12:00:00 (CEST)Angermünde, Duitsland (10291): zicht: 22.05.2018 12:00:00 - 28.05.2018 12:00:00 (CEST)Angermünde, Duitsland (10291): Zonneschijnduur: 22.05.2018 12:00:00 - 28.05.2018 12:00:00 (CEST)Angermünde, Duitsland (10291): neerslag: 22.05.2018 12:00:00 - 28.05.2018 12:00:00 (CEST)
Datum & Tijd tt [°C] td [°C] tt 5cm [°C] tt -5cm [°C] tt -20cm [°C] tt -100cm [°C] ff [km/u] ff [kn] fx [km/u] fx [kn] dd ppp [hPa] vv [km] sd [min] rr [mm]
28.05.2018 12:00:00 - - - - - - - - - - - - - - -
28.05.2018 11:00:00 25,8 17,0 29,6 24,4 19,4 16,1 16 9 24 13 O 1021,2 20 60 0,0
28.05.2018 10:00:00 23,7 17,9 26,6 22,4 18,9 16,1 9 5 16 8 O 1021,9 20 60 0,0
28.05.2018 09:00:00 21,8 16,7 24,4 20,3 18,6 16,1 8 4 13 7 ONO 1022,4 15 60 0,0
28.05.2018 08:00:00 19,4 16,5 19,8 17,8 18,5 16,1 5 3 9 5 ONO 1021,9 12 60 0,0
28.05.2018 07:00:00 16,0 15,2 15,2 16,2 18,7 16,0 4 2 8 4 ONO 1021,6 5 56 0,0
28.05.2018 06:00:00 14,4 14,2 13,2 15,8 18,9 16,0 6 3 8 5 NO 1021,7 5 4 0,0
28.05.2018 05:00:00 13,8 13,6 11,5 16,0 19,2 16,0 4 2 11 6 NO 1021,6 3,9 0 0,0
28.05.2018 04:00:00 14,4 14,2 12,1 16,3 19,5 16,0 7 4 10 6 ONO 1021,7 4,3 0 0,0
28.05.2018 03:00:00 14,5 13,9 12,6 16,7 19,8 16,0 8 4 11 6 NO 1021,8 5 0 0,0
28.05.2018 02:00:00 14,3 13,8 12,2 17,1 20,1 16,0 7 4 12 7 O 1021,8 5 0 0,0
28.05.2018 01:00:00 14,4 13,7 12,5 17,7 20,5 16,0 4 2 10 6 NNO 1022,1 5 0 0,0
28.05.2018 00:00:00 15,1 14,1 13,5 18,3 20,9 16,0 3 1 15 8 WZW 1021,9 6 0 0,0
27.05.2018 23:00:00 15,9 14,4 14,7 19,0 21,3 16,0 5 3 14 8 NNO 1021,8 7 0 0,0
27.05.2018 22:00:00 16,2 14,2 14,9 19,6 21,7 16,0 8 4 20 11 NO 1022,1 7 0 0,0
27.05.2018 21:00:00 16,9 13,9 15,6 20,6 22,2 15,9 11 6 25 14 NO 1021,6 9 0 0,0
27.05.2018 20:00:00 17,9 14,0 17,3 22,1 22,5 15,9 13 7 32 17 NNO 1021,5 9 12 0,0
27.05.2018 19:00:00 20,3 14,4 20,6 23,3 22,8 15,9 11 6 23 12 ONO 1021,1 9 22 0,0
27.05.2018 18:00:00 19,0 14,7 18,8 23,6 23,2 15,9 13 7 34 18 NO 1020,5 8 0 0,2
27.05.2018 17:00:00 18,6 15,3 17,6 26,8 23,2 15,9 18 10 52 28 ZO 1022,0 7 6 2,5
27.05.2018 16:00:00 27,4 14,1 34,2 30,5 22,7 15,9 17 9 27 14 O 1020,2 11 54 0,0
27.05.2018 15:00:00 27,2 13,1 35,3 29,3 22,1 15,9 12 6 20 11 NNO 1020,5 10 37 0,0
27.05.2018 14:00:00 26,0 12,2 32,8 29,4 21,5 15,9 8 5 17 9 O 1021,5 10 45 0,0
27.05.2018 13:00:00 25,0 13,8 33,4 28,2 20,8 15,9 7 4 15 8 O 1022,1 9 57 0,0
27.05.2018 12:00:00 24,1 14,7 30,8 25,9 20,1 15,9 6 3 15 8 NNO 1022,3 8 60 0,0
27.05.2018 11:00:00 21,7 15,1 27,2 24,3 19,6 15,9 6 3 13 7 NNO 1022,5 7 60 0,0
27.05.2018 10:00:00 19,2 14,6 25,0 22,0 19,2 15,8 6 3 16 8 N 1021,9 6 60 0,0
27.05.2018 09:00:00 16,1 13,7 21,3 19,4 19,1 15,8 6 3 13 7 NNO 1022,3 3,4 9 0,0
27.05.2018 08:00:00 13,9 13,3 16,8 18,3 19,1 15,8 6 3 11 6 N 1022,3 2,0 0 0,0
27.05.2018 07:00:00 13,2 13,1 14,8 17,7 19,3 15,8 6 3 13 7 NNO 1022,2 1,2 0 0,0
27.05.2018 06:00:00 13,0 13,0 13,8 17,5 19,4 15,8 8 4 14 8 NNO 1022,4 0,8 0 0,0
27.05.2018 05:00:00 13,0 13,0 13,3 17,4 19,6 15,8 9 5 21 11 N 1022,5 0,3 0 0,0
27.05.2018 04:00:00 12,7 12,7 13,0 17,4 19,9 15,8 9 5 21 11 N 1022,6 0,6 0 0,0
27.05.2018 03:00:00 12,7 12,4 12,0 17,4 20,2 15,7 8 4 15 8 N 1022,8 3,6 0 0,0
27.05.2018 02:00:00 13,2 12,5 11,5 17,9 20,6 15,7 7 4 14 7 N 1022,8 4,8 0 0,0
27.05.2018 01:00:00 13,3 12,4 11,7 18,6 21,0 15,7 5 3 11 6 NW 1022,8 3,8 0 0,0
27.05.2018 00:00:00 14,4 13,0 12,5 19,3 21,4 15,7 6 4 13 7 NNW 1022,7 2,7 0 0,0
26.05.2018 23:00:00 15,1 12,8 12,9 20,3 21,8 15,7 4 2 10 5 NW 1022,7 7 0 0,0
26.05.2018 22:00:00 16,3 13,1 14,1 21,5 22,2 15,7 6 4 18 10 NNO 1022,7 8 0 0,0
26.05.2018 21:00:00 19,2 12,9 17,7 22,8 22,4 15,7 13 7 18 10 N 1022,3 8 27 0,0
26.05.2018 20:00:00 21,1 13,8 22,1 24,0 22,6 15,7 4 2 11 6 N 1021,9 8 8 0,0
26.05.2018 19:00:00 20,8 14,2 21,1 24,9 22,8 15,7 7 4 21 11 NO 1022,0 8 0 0,0
26.05.2018 18:00:00 22,0 13,3 23,2 26,6 22,7 15,7 10 6 21 11 NNO 1022,1 9 13 0,0
26.05.2018 17:00:00 23,7 11,3 30,2 27,2 22,6 15,7 5 3 16 9 NNO 1022,2 10 36 0,0
26.05.2018 16:00:00 20,9 12,6 23,6 26,0 22,5 15,6 6 4 34 18 ZW 1022,6 9 0 0,0
26.05.2018 15:00:00 20,8 13,5 22,9 28,7 22,1 15,6 24 13 32 17 NNW 1022,6 8 16 0,0
26.05.2018 14:00:00 24,7 11,0 29,5 30,0 21,4 15,6 9 5 16 9 NNW 1022,2 9 51 0,0
26.05.2018 13:00:00 23,9 11,1 33,5 28,4 20,6 15,6 7 4 19 11 O 1022,6 10 60 0,0
26.05.2018 12:00:00 22,4 10,8 31,7 26,6 19,8 15,6 8 5 18 10 NO 1023,0 10 60 0,0
26.05.2018 11:00:00 22,9 11,9 28,7 24,4 19,2 15,6 11 6 20 11 O 1023,2 10 60 0,0
26.05.2018 10:00:00 21,2 12,3 27,0 21,9 18,8 15,6 8 4 17 9 NNO 1023,1 9 60 0,0
26.05.2018 09:00:00 18,7 12,9 22,5 19,3 18,6 15,5 5 3 9 5 OZO 1023,3 10 60 0,0
26.05.2018 08:00:00 15,6 12,1 18,5 16,9 18,7 15,5 4 2 9 5 ONO 1023,2 7 60 0,0
26.05.2018 07:00:00 12,8 11,7 11,8 15,9 18,9 15,5 3 2 6 4 N 1023,2 7 60 0,0
26.05.2018 06:00:00 10,7 10,3 9,4 15,9 19,3 15,5 3 2 8 4 NNW 1023,2 6 7 0,0
26.05.2018 05:00:00 10,4 10,0 8,4 16,2 19,6 15,5 6 3 8 4 NW 1022,8 6 0 0,0
26.05.2018 04:00:00 11,1 10,5 8,8 16,8 20,0 15,5 4 2 9 5 NW 1022,7 7 0 0,0
26.05.2018 03:00:00 11,2 10,0 9,2 17,4 20,4 15,4 6 3 9 5 N 1022,7 8 0 0,0
26.05.2018 02:00:00 12,2 10,3 9,9 18,1 20,8 15,4 4 2 10 5 NNO 1022,5 8 0 0,0
26.05.2018 01:00:00 12,0 9,9 10,8 18,7 21,3 15,4 7 4 10 5 W 1022,5 8 0 0,0
26.05.2018 00:00:00 13,2 9,8 10,6 19,6 21,8 15,4 6 3 16 9 NW 1022,4 8 0 0,0
25.05.2018 23:00:00 14,7 9,4 12,9 20,7 22,2 15,4 5 3 19 10 NNO 1022,4 9 0 0,0
25.05.2018 22:00:00 16,1 8,8 14,3 22,0 22,7 15,4 10 6 19 11 NNO 1022,3 9 0 0,0
25.05.2018 21:00:00 17,9 8,8 16,9 23,7 23,1 15,4 11 6 29 15 N 1021,7 10 38 0,0
25.05.2018 20:00:00 20,1 7,4 21,4 25,5 23,3 15,4 14 8 34 18 N 1021,3 10 60 0,0
25.05.2018 19:00:00 21,6 8,9 24,6 27,3 23,3 15,4 21 12 37 20 N 1020,9 10 60 0,0
25.05.2018 18:00:00 22,8 8,8 26,6 28,7 23,1 15,4 23 13 37 20 N 1020,9 8 60 0,0
25.05.2018 17:00:00 24,7 9,1 30,0 29,9 22,7 15,4 21 12 32 18 N 1020,7 11 60 0,0
25.05.2018 16:00:00 25,7 8,3 32,9 30,1 22,2 15,4 9 5 22 12 NNO 1020,9 11 60 0,0
25.05.2018 15:00:00 25,5 8,1 33,8 29,4 21,6 15,3 12 7 27 15 NO 1021,3 9 60 0,0
25.05.2018 14:00:00 24,6 8,2 28,9 28,3 21,0 15,3 14 8 23 12 O 1021,6 11 43 0,0
25.05.2018 13:00:00 24,2 8,3 29,5 28,1 20,2 15,3 13 7 27 15 O 1022,1 9 59 0,0
25.05.2018 12:00:00 24,4 8,4 31,4 26,4 19,5 15,3 13 7 27 15 NO 1022,2 10 60 0,0
25.05.2018 11:00:00 22,8 7,8 28,8 24,2 18,9 15,3 13 7 21 12 ONO 1022,7 11 60 0,0
25.05.2018 10:00:00 21,5 8,3 26,7 21,7 18,4 15,3 9 5 19 11 NO 1022,9 10 60 0,0
25.05.2018 09:00:00 19,0 8,6 24,0 19,3 18,2 15,3 10 5 17 9 NO 1023,2 8 60 0,0
25.05.2018 08:00:00 16,8 8,6 19,8 17,0 18,3 15,2 9 5 15 8 NO 1023,2 10 60 0,0
25.05.2018 07:00:00 14,2 9,1 13,3 15,9 18,5 15,2 5 3 12 6 N 1023,4 8 59 0,0
25.05.2018 06:00:00 12,2 8,5 10,5 15,7 18,8 15,2 5 3 10 5 N 1023,4 8 9 0,0
25.05.2018 05:00:00 12,2 8,7 9,6 16,1 19,2 15,2 7 4 12 6 N 1023,3 8 0 0,0
25.05.2018 04:00:00 12,5 8,7 10,3 16,4 19,5 15,2 6 4 13 7 NNO 1023,4 9 0 0,0
25.05.2018 03:00:00 13,7 9,2 9,5 17,0 19,9 15,2 6 3 13 7 O 1023,3 9 0 0,0
25.05.2018 02:00:00 13,7 9,8 10,8 17,7 20,3 15,2 9 5 18 10 ONO 1023,5 8 0 0,0
25.05.2018 01:00:00 13,3 10,0 10,8 18,5 20,8 15,2 6 3 14 8 NO 1023,3 8 0 0,0
25.05.2018 00:00:00 14,2 9,9 12,0 19,3 21,2 15,2 4 2 14 7 NO 1023,1 9 0 0,0
24.05.2018 23:00:00 15,7 9,4 12,8 20,4 21,7 15,1 8 5 18 10 NO 1022,9 9 0 0,0
24.05.2018 22:00:00 18,3 9,0 15,9 21,7 22,1 15,1 13 7 20 11 ONO 1022,6 10 0 0,0
24.05.2018 21:00:00 19,6 9,1 17,3 23,4 22,4 15,1 13 7 21 11 O 1022,3 10 32 0,0
24.05.2018 20:00:00 22,6 8,4 22,7 25,2 22,5 15,1 19 10 32 17 O 1022,0 11 59 0,0
24.05.2018 19:00:00 24,0 8,0 25,5 26,7 22,5 15,1 27 14 37 20 O 1022,0 10 57 0,0
24.05.2018 18:00:00 24,7 8,5 27,4 28,0 22,3 15,1 25 13 37 20 O 1022,0 10 59 0,0
24.05.2018 17:00:00 25,2 9,3 29,1 28,7 22,0 15,1 24 13 42 23 O 1022,3 9 58 0,0
24.05.2018 16:00:00 25,5 8,3 31,2 29,0 21,5 15,1 22 12 40 22 O 1022,8 13 58 0,0
24.05.2018 15:00:00 24,6 8,9 29,5 28,8 20,8 15,1 19 10 45 24 ONO 1023,6 10 59 0,0
24.05.2018 14:00:00 25,1 9,6 31,5 27,9 20,2 15,1 22 12 40 21 ONO 1024,2 11 60 0,0
24.05.2018 13:00:00 23,8 9,0 30,0 26,8 19,4 15,1 25 13 39 21 O 1024,9 11 60 0,0
24.05.2018 12:00:00 23,2 9,4 29,4 25,3 18,7 15,0 20 11 35 19 ONO 1025,3 7 60 0,0
24.05.2018 11:00:00 22,3 10,6 27,6 23,1 18,1 15,0 20 11 32 18 O 1025,5 9 60 0,0
24.05.2018 10:00:00 20,8 11,5 25,0 20,7 17,7 15,0 18 10 31 17 O 1025,6 13 60 0,0
24.05.2018 09:00:00 18,7 10,9 22,1 18,2 17,5 15,0 16 9 28 15 O 1025,9 4,7 60 0,0
24.05.2018 08:00:00 16,0 9,7 18,2 15,8 17,5 15,0 17 9 26 14 O 1026,0 10 60 0,0
24.05.2018 07:00:00 12,8 9,2 11,5 14,5 17,8 15,0 11 6 16 9 NO 1025,8 8 60 0,0
24.05.2018 06:00:00 10,6 8,3 8,6 14,4 18,1 15,0 5 3 14 7 NNO 1025,7 8 11 0,0
24.05.2018 05:00:00 9,5 7,8 6,6 14,8 18,5 14,9 7 4 11 6 NNO 1025,6 8 0 0,0
24.05.2018 04:00:00 9,7 7,9 6,8 15,4 18,9 14,9 5 3 8 4 NNO 1025,8 8 0 0,0
24.05.2018 03:00:00 10,8 8,4 7,1 16,0 19,4 14,9 4 2 8 4 NNO 1025,5 7 0 0,0
24.05.2018 02:00:00 11,1 8,2 8,0 16,7 19,8 14,9 4 2 11 6 NNO 1025,2 6 0 0,0
24.05.2018 01:00:00 12,0 8,1 9,1 17,6 20,3 14,9 6 4 11 6 N 1024,7 9 0 0,0
24.05.2018 00:00:00 12,3 8,3 10,5 18,5 20,7 14,9 4 2 15 8 NNW 1024,5 9 0 0,0
23.05.2018 23:00:00 14,7 9,0 12,5 19,7 21,2 14,9 9 5 17 9 NNO 1024,3 10 0 0,0
23.05.2018 22:00:00 15,9 9,7 13,9 21,0 21,6 14,9 10 6 24 13 NNO 1024,0 10 0 0,0
23.05.2018 21:00:00 17,8 10,2 16,7 22,6 22,0 14,9 16 8 24 13 N 1023,4 9 8 0,0
23.05.2018 20:00:00 19,5 10,7 19,8 24,5 22,1 14,9 18 10 32 17 N 1022,8 10 50 0,0
23.05.2018 19:00:00 21,8 9,7 23,9 26,3 22,1 14,9 19 10 29 16 NNO 1022,3 13 60 0,0
23.05.2018 18:00:00 24,3 6,3 28,7 27,7 21,9 14,9 16 9 28 15 ONO 1022,3 12 60 0,0
23.05.2018 17:00:00 24,4 6,9 28,8 27,9 21,5 14,8 16 9 26 14 NO 1022,3 12 58 0,0
23.05.2018 16:00:00 23,7 6,6 27,5 28,3 21,0 14,8 14 7 26 14 NO 1022,6 12 60 0,0
23.05.2018 15:00:00 24,7 7,5 32,2 28,6 20,4 14,8 12 6 27 15 NO 1022,6 10 60 0,0
23.05.2018 14:00:00 22,7 6,2 31,2 27,6 19,6 14,8 11 6 30 16 ONO 1023,0 10 60 0,0
23.05.2018 13:00:00 22,6 8,3 29,0 25,7 19,0 14,8 12 6 26 14 NO 1022,9 9 60 0,0
23.05.2018 12:00:00 21,4 8,4 27,3 24,0 18,3 14,8 14 7 23 12 NO 1022,6 11 60 0,0
23.05.2018 11:00:00 20,4 8,6 26,3 22,7 17,7 14,8 13 7 24 13 NO 1022,4 10 60 0,0
23.05.2018 10:00:00 19,6 9,7 25,5 20,4 17,3 14,8 14 8 23 13 NO 1022,1 11 60 0,0
23.05.2018 09:00:00 17,3 10,2 20,9 17,8 17,1 14,7 11 6 18 10 NO 1022,1 9 60 0,0
23.05.2018 08:00:00 14,3 9,2 16,9 15,3 17,2 14,7 8 4 15 8 NNO 1021,8 9 60 0,0
23.05.2018 07:00:00 11,4 8,5 9,9 14,0 17,5 14,7 6 4 11 6 NNO 1021,3 9 60 0,0
23.05.2018 06:00:00 9,1 7,5 6,8 14,1 17,8 14,7 5 3 9 5 N 1020,5 8 10 0,0
23.05.2018 05:00:00 9,4 7,5 6,5 14,5 18,2 14,7 6 3 13 7 NNW 1020,1 9 0 0,0
23.05.2018 04:00:00 9,8 8,1 7,5 15,0 18,6 14,7 7 4 11 6 N 1019,7 8 0 0,0
23.05.2018 03:00:00 10,3 8,0 8,0 15,7 19,1 14,7 8 4 13 7 NNW 1019,3 8 0 0,0
23.05.2018 02:00:00 10,8 8,0 8,6 16,4 19,5 14,7 6 3 10 6 NNW 1019,0 8 0 0,0
23.05.2018 01:00:00 11,7 8,1 9,0 17,3 20,0 14,7 7 4 10 6 NNW 1018,8 9 0 0,0
23.05.2018 00:00:00 12,9 8,1 9,4 18,2 20,5 14,6 6 4 11 6 N 1018,4 9 0 0,0
22.05.2018 23:00:00 14,2 7,6 10,3 19,4 21,0 14,6 5 3 19 10 NNO 1018,1 11 0 0,0
22.05.2018 22:00:00 15,2 8,0 13,2 20,9 21,5 14,6 10 6 22 12 NNO 1017,4 11 0 0,0
22.05.2018 21:00:00 18,2 7,9 16,3 22,7 21,8 14,6 12 7 22 12 NNO 1016,8 12 28 0,0
22.05.2018 20:00:00 20,8 6,8 22,0 24,8 21,9 14,6 8 5 14 8 NO 1016,2 12 60 0,0
22.05.2018 19:00:00 22,7 6,9 25,2 26,5 21,9 14,6 8 4 13 7 ONO 1015,7 14 60 0,0
22.05.2018 18:00:00 23,4 5,5 27,8 27,7 21,6 14,6 9 5 17 9 NO 1015,7 15 60 0,0
22.05.2018 17:00:00 23,0 5,9 27,6 28,3 21,3 14,6 8 4 21 11 O 1015,8 15 60 0,0
22.05.2018 16:00:00 23,2 5,4 28,8 28,3 20,7 14,6 9 5 22 12 OZO 1015,8 14 49 0,0
22.05.2018 15:00:00 23,1 5,6 30,4 28,7 20,0 14,6 12 6 23 13 O 1016,0 13 60 0,0
22.05.2018 14:00:00 22,4 5,2 30,0 27,6 19,2 14,6 13 7 30 16 O 1016,2 10 60 0,0
22.05.2018 13:00:00 23,1 6,6 28,8 25,7 18,5 14,6 8 5 22 12 O 1016,2 11 44 0,0
22.05.2018 12:00:00 22,7 6,0 30,2 24,8 17,7 14,6 11 6 26 14 ONO 1016,6 12 60 0,0

tt = temperatuur
td = dauwpunt
tt 5cm = temperatuur 5cm
tt -5cm = temperatuur -5cm
tt -20cm = temperatuur -20cm
tt -100cm = temperatuur -100cm
ff = windsnelheid
fx = windstoten
dd = windrichting
ppp = luchtdruk
vv = zicht
sd = Zonneschijnduur
rr = neerslag

Weerstations in de omgeving